Weather History for Oakland, CA

Change the Weather History Date:

Wednesday, August 7, 2013

  Actual Average Record
Temperature  
Mean Temperature 64 °F 63 °F  
Max Temperature 72 °F 71 °F 88 °F (1984)
Min Temperature 55 °F 56 °F 51 °F (2002)
Degree Days  
Heating Degree Days 1 2  
Month to date heating degree days 24 15  
Since 1 June heating degree days 128 201  
Since 1 July heating degree days 68 98  
Cooling Degree Days 0 0  
Month to date cooling degree days 0 0  
Year to date cooling degree days 105 52  
Since 1 June cooling degree days 64 36  
Growing Degree Days 14 (Base 50)    
Moisture  
Dew Point 58 °F    
Average Humidity 79    
Maximum Humidity 100    
Minimum Humidity 57    
Precipitation  
Precipitation T in 0.00 in 0.00 in (2014)
Month to date precipitation T 0.00  
Year to date precipitation 2.82 13.23  
Since 1 July precipitation T 0.01  
Sea Level Pressure  
Sea Level Pressure 30.07 in    
Wind  
Wind Speed 10 mph (West)    
Max Wind Speed 17 mph    
Max Gust Speed 26 mph    
Visibility 9 miles    
Events Rain    
T = Trace of Precipitation, MM = Missing Value Source: NWS Daily Summary

Daily Weather History Graph

Daily Weather History Graph

Search for Another Location

Airport:

Trip Planner

Search our weather history database for the weather conditions in past years. The results will help you decide how hot, cold, wet, or windy it might be!

Date:

Astronomy

Aug. 07, 2013 Rise Set
Actual Time 6:17 AM PDT 8:10 PM PDT
Civil Twilight 5:49 AM PDT 8:39 PM PDT
Nautical Twilight 5:14 AM PDT 9:13 PM PDT
Astronomical Twilight 4:37 AM PDT 9:50 PM PDT
Moon 7:09 AM PDT (8/7) 8:23 PM PDT (8/7)
Length of Visible Light 14h 49m
Length of Day
13h 52m
New Moon, 1% of the Moon is Illuminated
Aug 7
New Moon
Aug 14
First Quarter
Aug 20
Full
Aug 28
Last Quarter
Sep 5
New

Hourly Weather History & Observations

Time (PDT) Temp. Dew Point Humidity Pressure Visibility Wind Dir Wind Speed Gust Speed Precip Events Conditions
12:53 AM 60.1 °F 60.1 °F 100% 30.06 in 10.0 mi West 12.7 mph - N/A   Overcast
1:49 AM 60.8 °F 60.8 °F 100% 30.07 in 8.0 mi West 13.8 mph - 0.00 in Rain Light Rain
1:53 AM 59.0 °F 59.0 °F 100% 30.06 in 8.0 mi West 13.8 mph - 0.00 in Rain Light Rain
2:21 AM 57.2 °F 57.2 °F 100% 30.07 in 10.0 mi WSW 13.8 mph - 0.00 in Rain Light Rain
2:53 AM 57.9 °F 55.9 °F 93% 30.07 in 10.0 mi WSW 11.5 mph - 0.00 in Rain Light Rain
3:04 AM 57.2 °F 57.2 °F 100% 30.07 in 10.0 mi West 12.7 mph - 0.00 in   Overcast
3:14 AM 57.2 °F 57.2 °F 100% 30.07 in 10.0 mi West 15.0 mph - 0.00 in   Overcast
3:27 AM 57.2 °F 57.2 °F 100% 30.07 in 10.0 mi West 11.5 mph - 0.00 in   Overcast
3:48 AM 57.2 °F 57.2 °F 100% 30.07 in 4.0 mi West 10.4 mph - 0.00 in Rain Light Rain
3:53 AM 57.0 °F 57.0 °F 100% 30.07 in 6.0 mi West 9.2 mph - 0.00 in Rain Light Rain
4:33 AM 57.2 °F 55.4 °F 94% 30.07 in 9.0 mi WNW 6.9 mph - 0.00 in Rain Light Rain
4:50 AM 57.2 °F 55.4 °F 94% 30.07 in 10.0 mi WNW 6.9 mph - 0.00 in   Overcast
4:53 AM 57.0 °F 55.0 °F 93% 30.07 in 10.0 mi West 6.9 mph - 0.00 in   Overcast
5:17 AM 57.2 °F 55.4 °F 94% 30.07 in 6.0 mi West 6.9 mph - 0.00 in   Overcast
5:29 AM 57.2 °F 55.4 °F 94% 30.07 in 9.0 mi WSW 4.6 mph - 0.00 in   Overcast
5:35 AM 57.2 °F 55.4 °F 94% 30.07 in 8.0 mi West 4.6 mph - 0.00 in Rain Light Rain
5:45 AM 57.2 °F 55.4 °F 94% 30.07 in 10.0 mi West 4.6 mph - 0.00 in Rain Light Rain
5:53 AM 57.9 °F 55.0 °F 90% 30.07 in 10.0 mi WNW 6.9 mph - 0.00 in Rain Light Rain
6:06 AM 57.2 °F 55.4 °F 94% 30.07 in 10.0 mi West 9.2 mph - 0.00 in Rain Light Rain
6:24 AM 57.2 °F 57.2 °F 100% 30.07 in 10.0 mi West 6.9 mph - 0.00 in   Overcast
6:53 AM 57.9 °F 57.0 °F 97% 30.07 in 10.0 mi West 8.1 mph - 0.00 in   Overcast
7:53 AM 60.1 °F 57.0 °F 90% 30.08 in 10.0 mi WSW 9.2 mph - N/A   Overcast
8:53 AM 60.1 °F 57.9 °F 93% 30.10 in 10.0 mi WSW 11.5 mph - N/A   Overcast
9:53 AM 62.1 °F 55.9 °F 80% 30.11 in 10.0 mi SW 8.1 mph - N/A   Overcast
10:53 AM 63.0 °F 57.9 °F 84% 30.12 in 10.0 mi SW 8.1 mph - N/A   Overcast
11:53 AM 64.0 °F 57.9 °F 80% 30.12 in 10.0 mi West 8.1 mph - N/A   Mostly Cloudy
12:53 PM 64.9 °F 57.9 °F 78% 30.12 in 10.0 mi West 8.1 mph - N/A   Mostly Cloudy
1:53 PM 68.0 °F 57.0 °F 68% 30.11 in 10.0 mi West 11.5 mph - N/A   Scattered Clouds
2:53 PM 71.1 °F 55.9 °F 59% 30.09 in 10.0 mi West 12.7 mph - N/A   Partly Cloudy
3:53 PM 72.0 °F 57.9 °F 61% 30.08 in 10.0 mi West 16.1 mph - N/A   Scattered Clouds
4:53 PM 69.1 °F 59.0 °F 70% 30.07 in 10.0 mi WNW 13.8 mph - N/A   Scattered Clouds
5:53 PM 66.9 °F 59.0 °F 76% 30.07 in 10.0 mi West 4.6 mph - N/A   Scattered Clouds
6:53 PM 66.0 °F 60.1 °F 81% 30.06 in 10.0 mi NW 5.8 mph - N/A   Scattered Clouds
7:30 PM 64.4 °F 60.8 °F 88% 30.06 in 10.0 mi WNW 12.7 mph - N/A   Mostly Cloudy
7:53 PM 64.0 °F 61.0 °F 90% 30.06 in 10.0 mi West 11.5 mph - N/A   Mostly Cloudy
8:53 PM 63.0 °F 60.1 °F 90% 30.06 in 10.0 mi WNW 8.1 mph - N/A   Mostly Cloudy
9:53 PM 62.1 °F 61.0 °F 96% 30.06 in 10.0 mi WNW 10.4 mph - N/A   Mostly Cloudy
10:53 PM 61.0 °F 61.0 °F 100% 30.06 in 10.0 mi WNW 8.1 mph - N/A   Overcast
11:35 PM 60.8 °F 60.8 °F 100% 30.06 in 10.0 mi West 10.4 mph - N/A   Overcast
11:53 PM 61.0 °F 61.0 °F 100% 30.05 in 10.0 mi West 9.2 mph - N/A   Overcast